www.pogodaiklimat.ru

Погода и климат >> Архив погоды >> Пакистан >> Nawabshah


ПОГОДА в Nawabshah

  • Прогноз погоды в Nawabshah
  • Монитор погоды в Nawabshah
  • Климат города

АРХИВ ПОГОДЫ в Nawabshah

Время (UTC), дата Ветер
(напр.,м/с)
 
Видим.   Явления Облачность Т
(С)
Тd
(С)
f
(%)
Тe
(С)
Тes
(С)
Комфортность P
(гПа)
Po
(гПа)
Тmin
(С)
Tmax
(С)
R
(мм)
R24
(мм)
S
(см)
06 19.06 Ю 5 4000 м ясно +38.5 +24.6 45 +50 +60 опасность
перегрева
996.8 993.7
09 19.06 Ю 3 4000 м ясно +43.0 +23.5 33 +52 +70 опасность
перегрева
994.6 1000.0
12 19.06 Ю 4 4000 м ясно +44.0 +23.0 31 +53 +57 опасность
перегрева
992.3 1002.5 +44.5
15 19.06 Ю 4 4000 м мгла ясно +37.0 +23.6 46 +47 +47 опасность
перегрева
992.9 1000.0
18 19.06 Ю 5 4000 м пыльный позёмок 3/0
[Ac trans]
+33.5 +24.4 59 +46 +46 опасность
перегрева
994.4 991.1
21 19.06 Ю 5 4000 м мгла 3/0
[Ac trans]
+31.0 +23.9 66 +43 +43 опасность
перегрева
993.3 989.3
00 20.06 Ю 6 4000 м мгла ясно +29.0 +23.2 71 +39 +39 очень
душно
993.9 990.6
03 20.06 Ю 6 4000 м мгла ясно +34.0 +30.1 80 +61 +63 опасность
перегрева
994.5 991.2 +28.5
06 20.06 Ю 6 4000 м ясно +36.5 +24.6 51 +49 +57 опасность
перегрева
995.4 992.1
09 20.06 ЮЗ 5 4000 м ясно +43.0 +24.3 35 +54 +64 опасность
перегрева
993.9 994.0
12 20.06 Ю 3 4000 м мгла 3/3 300 м
[Sc]
+43.0 +24.3 35 +54 +57 опасность
перегрева
993.0 989.9 +44.5
15 20.06 1000 м пыль н/о +37.0 +19.1 35 +42 +42 опасность
перегрева
993.7 1000.0
18 20.06 Ю 5 2000 м пыльный позёмок ясно +33.0 +21.3 50 +41 +41 опасность
перегрева
994.2 1003.4
21 20.06 Ю 5 2000 м пыльный позёмок 3/3 300 м
[Sc]
+31.0 +22.3 60 +40 +40 очень
душно
993.2 1000.0
00 21.06 Ю 8 2000 м пыльный позёмок 3/3 1050 м
[Sc]
+30.0 +23.5 68 +41 +41 опасность
перегрева
993.0 989.7
03 21.06 Ю 5 4000 м мгла 4/4 900 м
[Sc]
+32.0 +25.0 67 +46 +47 опасность
перегрева
995.3 992.0 +29.5
06 21.06 Ю 4 4000 м мгла ясно +38.0 +25.6 49 +52 +66 опасность
перегрева
996.4 993.3
09 21.06 ЮЗ 4 4000 м 3/3 900 м
[Sc]
+42.0 +23.0 34 +51 +60 опасность
перегрева
994.7 995.0
12 21.06 Ю 5 4000 м мгла ясно +42.0 +24.8 38 +54 +56 опасность
перегрева
993.2 990.2 +43.0
15 21.06 Ю 4 4000 м мгла ясно +36.0 +24.9 53 +49 +49 опасность
перегрева
994.3 1000.0
18 21.06 Ю 6 4000 м мгла ясно +32.0 +24.2 63 +44 +44 опасность
перегрева
995.5 992.3
21 21.06 Ю 5 4000 м мгла ясно +30.5 +24.1 69 +42 +42 опасность
перегрева
994.4 994.0
00 22.06 Ю 2 4000 м мгла ясно +29.0 +24.0 74 +40 +40 очень
душно
993.5 990.3
03 22.06 Ю 5 4000 м мгла ясно +31.5 +25.2 69 +45 +48 опасность
перегрева
996.1 992.9 +28.5
06 22.06 Ю 6 4000 м мгла ясно +40.0 +23.9 40 +51 +58 опасность
перегрева
998.1 995.0
09 22.06 Ю 3 4000 м мгла ясно +44.0 +24.8 34 +55 +73 опасность
перегрева
995.9 1000.0
12 22.06 Ю 6 4000 м мгла ясно +42.0 +24.8 38 +54 +56 опасность
перегрева
994.8 991.8 +45.0
15 22.06 Ю 3 4000 м мгла ясно +38.0 +24.8 47 +51 +51 опасность
перегрева
996.0 1000.0
18 22.06 Ю 9 2000 м пыльный позёмок ясно +33.0 +23.0 56 +43 +43 опасность
перегрева
998.7 995.4
21 22.06 Ю 8 2000 м пыльный позёмок ясно +30.0 +22.0 62 +39 +39 очень
душно
997.9 998.0
00 23.06 Ю 3 2000 м мгла ясно +27.5 +22.4 74 +36 +36 очень
душно
997.2 993.9
03 23.06 Ю 3 4000 м мгла ясно +32.5 +24.8 64 +46 +51 опасность
перегрева
998.6 995.4 +27.1
06 23.06 ЮВ 3 4000 м мгла 3/0
[Ac trans]
+37.5 +24.2 47 +49 +63 опасность
перегрева
1000.3 997.2
09 23.06 ЮВ 2 4000 м мгла 3/0
[Ac trans]
+41.0 +24.4 39 +52 +68 опасность
перегрева
998.3 1000.0
12 23.06 ЮВ 4 4000 м мгла 5/1 1050 м
[Sc Ac trans]
+40.5 +25.4 43 +54 +56 опасность
перегрева
996.2 993.2 +42.5
15 23.06 ЮВ 5 4000 м мгла 6/3 1050 м
[Sc Ac trans]
+35.0 +25.3 57 +49 +49 опасность
перегрева
997.4 997.0
18 23.06 Ю 5 4000 м мгла ясно +33.0 +24.6 61 +46 +46 опасность
перегрева
998.3 995.1
21 23.06 Ю 2 4000 м мгла ясно +30.0 +23.5 68 +41 +41 опасность
перегрева
997.1 1000.0
00 24.06 Ю 2 4000 м мгла ясно +29.0 +24.0 74 +40 +40 очень
душно
996.4 993.2
03 24.06 ЮВ 4 4000 м мгла ясно +31.5 +24.6 67 +44 +48 опасность
перегрева
997.5 994.3 +28.0
06 24.06 ЮВ 2 4000 м мгла ясно +37.0 +24.4 49 +49 +69 опасность
перегрева
997.7 994.6
09 24.06 ЮВ 3 4000 м мгла ясно +41.0 +23.5 37 +51 +68 опасность
перегрева
995.0 1000.0
12 24.06 ЮВ 5 4000 м мгла ясно +40.5 +26.2 45 +56 +58 опасность
перегрева
992.6 1002.2 +42.5
15 24.06 ЮВ 3 4000 м мгла ясно +35.0 +26.8 63 +53 +53 опасность
перегрева
993.8 1000.0
18 24.06 ЮВ 6 4000 м мгла ясно +32.0 +25.8 70 +47 +47 опасность
перегрева
995.6 992.4
21 24.06 ЮВ 5 4000 м мгла ясно +29.0 +24.0 74 +40 +40 очень
душно
995.1 995.0
00 25.06 ЮВ 2 4000 м мгла ясно +28.0 +23.7 77 +38 +38 очень
душно
994.8 991.6
03 25.06 ЮВ 5 4000 м мгла ясно +32.0 +25.8 70 +47 +50 опасность
перегрева
995.3 992.1 +27.5
06 25.06 ЮВ 3 4000 м мгла ясно +37.0 +27.6 59 +56 +73 опасность
перегрева
996.2 993.1
09 25.06 ЮВ 4 4000 м мгла ясно +41.5 +26.6 44 +58 +72 опасность
перегрева
995.7 1000.0
12 25.06 ЮВ 6 4000 м мгла ясно +41.0 +26.0 43 +55 +57 опасность
перегрева
993.9 1002.4 +42.5
15 25.06 ЮВ 3 4000 м мгла ясно +36.5 +26.2 56 +53 +53 опасность
перегрева
993.7 1000.0
18 25.06 ЮВ 2 4000 м мгла ясно +33.0 +25.3 64 +47 +47 опасность
перегрева
995.6 992.3

 

Местоположение метеостанции Nawabshah (Пакистан): широта 26.25 долгота 68.37 высота над уровнем моря 38 м.

В архиве по умолчанию представлена погода в Nawabshah за последнюю неделю. Архивные данные за месяц целиком и за предыдущие месяцы, начиная с января 2011 года, Вы можете получить, выбрав интересующий диапазон дат из раскрывающегося списка и нажав кнопку "Ввод!".

Внимание! Время в таблицах - всемирное. Для получения местного времени необходимо прибавить поправку, которая в Nawabshah равна 5 ч.

Смотрите также архив погоды в соседних городах и на ближайших метеорологических станциях:

Погода в Pad Idan (Пакистан) (71 км)
Погода в Hyderabad Airport (Пакистан) (97 км)
Погода в Chhor (Пакистан) (163 км)
Погода в Rohri (Пакистан) (166 км)
Погода в Badin (Пакистан) (188 км)
Погода в Karachi (Пакистан) (195 км)
Погода в Jacobabad (Пакистан) (228 км)
Погода в Khuzdar (Пакистан) (246 км)
Погода в Jaisalmer (Rajasthan, Индия) (264 км)
Погода в Barmer (Rajasthan, Индия) (306 км)

Пояснения к столбцам:

Ветер - указаны скорость ветра в м/с - средняя за 10 мин, порывы в срок и между сроками (в фигурных скобках) и направление, откуда дует ветер: С - северный, СВ - северо-восточный, В - восточный, ЮВ - юго-восточный, Ю - южный, ЮЗ - юго-западный, З - западный, СЗ - северо-западный.
Видимость - горизонтальная дальность видимости в метрах или километрах. При видимости от 1 до 10 км при отсутствии осадков обычно наблюдается дымка, при ухудшении видимости до 1 км и менее - туман. В сухую погоду видимость может ухудшаться дымом, пылью или мглою.
Явления - указаны атмосферные явления, наблюдавшиеся в срок или в последний час перед сроком; фигурными скобками обозначены явления, наблюдавшиеся между сроками (за 1-3 часа до срока); квадратными скобками обозначены град или гололедные отложения с указанием их диаметра в мм.
Облачность - указаны через наклонную черту общая и нижняя облачность в баллах и высота нижней границы облаков в метрах; квадратными скобками обозначены формы облаков: Ci - перистые, Cs - перисто-слоистые, Cc - перисто-кучевые, Ac - высококучевые, As - высокослоистые, Sc - слоисто-кучевые, Ns - слоисто-дождевые, Cu - кучевые, Cb - кучево-дождевые. Подробнее классификацию облаков см. в Атласе облаков (PDF).
T - Температура воздуха - температура, измеренная на высоте 2 м над землей.
Td - Температура точки росы - температура, при понижении до которой содержащийся в воздухе водяной пар достигнет насыщения.
f - Относительная влажность воздуха - влажноcть воздуха, измеренная на высоте 2 м над землей.
Te - Эффективная температура - температура, которую ощущает одетый по сезону человек в тени. Характеристика душности погоды. При расчете учитывается влияние влажности воздуха и скорости ветра на теплоощущения человека.
Tes - Эффективная температура на солнце - температура, которую ощущает человек, с поправкой на солнечный нагрев. Характеристика знойности погоды. Зависит от высоты солнца над горизонтом, облачности и скорости ветра. Ночью, в пасмурную погоду, а также при ветре 12 м/с и более поправка равна нулю.
P - Атмосферное давление - приведенное к уровню моря атмосферное давление.
Po - Атмосферное давление - измеренное на уровне метеостанции атмосферное давление.
Tmin - Минимальная температура - минимум температуры воздуха на высоте 2 м над землей.
Tmax - Максимальная температура - максимум температуры воздуха на высоте 2 м над землей.
R - Количество осадков - Количество выпавших осадков за период времени, мм. При наведении курсора мыши на число - период времени, за который выпало указанное количество осадков.
R24 - Количество осадков - Количество выпавших осадков за 24 часа, мм.
S - Снежный покров - Высота снежного покрова, см. При наведении курсора мыши на число - состояние снежного покрова и степень покрытия местности в баллах.